Simultaneous Nadir Overpasses (SNOs) Predictions

Prediction of SNOs between LANDSAT-8 and NPP Satellite Orbit:

Table of predicted SNOs for the next 14.0 days since TLE Epoch: 11/6/2015
Index Date (LANDSAT-8) Time (LANDSAT-8) Lat,Lon (LANDSAT-8) SZA (LANDSAT-8 ) Date (NPP) Time (NPP) Lat,Lon (NPP) SZA (NPP ) Distance(km) Time Diff (sec)
1 11/09/2015 05:19:32 70.34, 96.93 87.00 11/09/2015 05:18:58 70.34, 96.96 87.00 1.18 34
2 11/09/2015 06:09:02 -70.23, -95.60 93.11 11/09/2015 06:09:40 -70.24, -95.57 93.09 1.89 38
3 11/11/2015 20:46:28 -70.75, 45.78 91.85 11/11/2015 20:45:17 -70.85, 44.60 91.76 44.37 71
4 11/11/2015 21:36:01 70.32,-147.22 87.73 11/11/2015 21:35:53 70.33,-147.26 87.74 1.40 8
5 11/11/2015 22:25:31 -70.21, 20.25 92.38 11/11/2015 22:26:35 -70.22, 20.22 92.36 1.80 64
6 11/14/2015 13:03:03 -70.40, 161.13 91.49 11/14/2015 13:02:04 -70.42, 161.06 91.47 3.48 59
7 11/14/2015 13:52:30 70.29, -31.38 88.41 11/14/2015 13:52:47 70.27, -31.40 88.39 2.53 17
8 11/14/2015 14:42:10 -69.63, 135.33 92.25 11/14/2015 14:43:19 -69.63, 136.87 92.24 59.79 69
9 11/17/2015 05:19:32 -70.35, -83.05 90.86 11/17/2015 05:18:58 -70.36, -83.10 90.85 1.84 34
10 11/17/2015 06:08:59 70.24, 84.43 89.04 11/17/2015 06:09:41 70.22, 84.44 89.02 2.93 42
11 11/19/2015 20:46:26 70.62,-134.40 90.04 11/19/2015 20:45:14 70.69,-135.18 90.12 29.88 72
12 11/19/2015 21:36:00 -70.30, 32.75 90.28 11/19/2015 21:35:51 -70.31, 32.74 90.26 1.93 9
13 11/19/2015 22:25:27 70.18,-159.77
